When you browse on this site, cookies collect data to enhance your experience and personalize the content and advertising you see.
Visit our Privacy Policy to learn more. By continuing to use the site, you agree to this use of cookies and data.
  • In Hungary
  • List of Countries
  • For 7 days
  • Water Temperature
  • Satellite Maps
  • Weather Map
  • News
  • Weather Widgets
  • user-avatar
    Login

    Hourly Weather Kevelaer

    Today, 23 February, Saturday

    Time Temperature Precipitation Wind Pressure Humidity
    00:00 +7°C° 0 mm 2 mps 776 mmHg 91%
    01:00 +7°C° 0 mm 2 mps 776 mmHg 91%
    02:00 +6°C° 0 mm 2 mps 776 mmHg 92%
    03:00 +6°C° 0 mm 2 mps 776 mmHg 92%
    04:00 +6°C° 0 mm 2 mps 776 mmHg 91%
    05:00 +4°C° 0 mm 3 mps 776 mmHg 90%
    06:00 +4°C° 0 mm 2 mps 777 mmHg 90%
    07:00 +4°C° 0 mm 3 mps 777 mmHg 85%
    08:00 +5°C° 0 mm 3 mps 776 mmHg 80%
    09:00 +5°C° 0 mm 4 mps 776 mmHg 75%
    10:00 +7°C° 0 mm 4 mps 776 mmHg 68%
    11:00 +8°C° 0 mm 4 mps 776 mmHg 61%
    12:00 +10°C° 0 mm 4 mps 776 mmHg 54%
    13:00 +11°C° 0 mm 4 mps 775 mmHg 50%
    14:00 +11°C° 0 mm 3 mps 775 mmHg 46%
    15:00 +11°C° 0 mm 3 mps 775 mmHg 42%
    16:00 +10°C° 0 mm 3 mps 775 mmHg 43%
    17:00 +9°C° 0 mm 3 mps 775 mmHg 45%
    18:00 +8°C° 0 mm 3 mps 775 mmHg 47%
    19:00 +7°C° 0 mm 3 mps 775 mmHg 48%
    20:00 +7°C° 0 mm 3 mps 775 mmHg 50%
    21:00 +5°C° 0 mm 3 mps 776 mmHg 51%
    22:00 +5°C° 0 mm 3 mps 776 mmHg 51%
    23:00 +4°C° 0 mm 3 mps 776 mmHg 51%

    Tomorrow, 24 February, Sunday

    Time Temperature Precipitation Wind Pressure Humidity
    00:00 +4°C° 0 mm 3 mps 776 mmHg 51%
    01:00 +4°C° 0 mm 3 mps 776 mmHg 50%
    02:00 +4°C° 0 mm 2 mps 776 mmHg 49%
    03:00 +4°C° 0 mm 2 mps 776 mmHg 48%
    04:00 +4°C° 0 mm 2 mps 776 mmHg 46%
    05:00 +4°C° 0 mm 2 mps 776 mmHg 45%
    06:00 +3°C° 0 mm 2 mps 776 mmHg 44%
    07:00 +5°C° 0 mm 2 mps 776 mmHg 42%
    08:00 +6°C° 0 mm 2 mps 776 mmHg 40%
    09:00 +7°C° 0 mm 2 mps 776 mmHg 38%
    10:00 +8°C° 0 mm 2 mps 776 mmHg 35%
    11:00 +10°C° 0 mm 2 mps 776 mmHg 32%
    12:00 +13°C° 0 mm 2 mps 776 mmHg 29%
    13:00 +13°C° 0 mm 2 mps 776 mmHg 29%
    14:00 +14°C° 0 mm 2 mps 776 mmHg 29%
    15:00 +14°C° 0 mm 1 mps 776 mmHg 29%
    16:00 +13°C° 0 mm 1 mps 776 mmHg 32%
    17:00 +11°C° 0 mm 1 mps 776 mmHg 34%
    18:00 +9°C° 0 mm 2 mps 776 mmHg 37%
    19:00 +8°C° 0 mm 2 mps 776 mmHg 38%
    20:00 +8°C° 0 mm 2 mps 777 mmHg 39%
    21:00 +7°C° 0 mm 2 mps 777 mmHg 40%
    22:00 +8°C° 0 mm 1 mps 777 mmHg 42%
    23:00 +8°C° 0 mm 1 mps 777 mmHg 44%

    Day after tomorrow, 25 February, Monday

    Time Temperature Precipitation Wind Pressure Humidity
    00:00 +8°C° 0 mm 1 mps 777 mmHg 46%
    01:00 +7°C° 0 mm 1 mps 777 mmHg 47%
    02:00 +7°C° 0 mm 1 mps 777 mmHg 49%
    03:00 +7°C° 0 mm 1 mps 777 mmHg 51%
    04:00 +6°C° 0 mm 1 mps 777 mmHg 51%
    05:00 +6°C° 0 mm 1 mps 777 mmHg 52%
    06:00 +6°C° 0 mm 1 mps 777 mmHg 53%
    07:00 +7°C° 0 mm 1 mps 777 mmHg 51%
    08:00 +9°C° 0 mm 1 mps 777 mmHg 49%
    09:00 +10°C° 0 mm 1 mps 777 mmHg 47%
    10:00 +11°C° 0 mm 1 mps 777 mmHg 44%
    11:00 +13°C° 0 mm 1 mps 777 mmHg 41%
    12:00 +14°C° 0 mm 2 mps 776 mmHg 39%
    13:00 +14°C° 0 mm 1 mps 776 mmHg 38%
    14:00 +15°C° 0 mm 1 mps 776 mmHg 38%
    15:00 +15°C° 0 mm 1 mps 775 mmHg 38%
    16:00 +14°C° 0 mm 1 mps 776 mmHg 42%
    17:00 +12°C° 0 mm 1 mps 776 mmHg 46%
    18:00 +11°C° 0 mm 1 mps 776 mmHg 50%
    19:00 +10°C° 0 mm 1 mps 776 mmHg 51%
    20:00 +10°C° 0 mm 1 mps 776 mmHg 53%
    21:00 +9°C° 0 mm 1 mps 776 mmHg 54%
    22:00 +9°C° 0 mm 1 mps 776 mmHg 55%
    23:00 +9°C° 0 mm 1 mps 776 mmHg 57%

    26 February, Tuesday

    Time Temperature Precipitation Wind Pressure Humidity
    00:00 +8°C° 0 mm 1 mps 775 mmHg 58%
    01:00 +8°C° 0 mm 1 mps 775 mmHg 60%
    02:00 +8°C° 0 mm 1 mps 775 mmHg 61%
    03:00 +6°C° 0 mm 0 mps 775 mmHg 63%
    04:00 +6°C° 0 mm 0 mps 775 mmHg 65%
    05:00 +6°C° 0 mm 0 mps 775 mmHg 66%
    06:00 +7°C° 0 mm 1 mps 774 mmHg 68%
    07:00 +8°C° 0 mm 1 mps 774 mmHg 65%
    08:00 +9°C° 0 mm 1 mps 774 mmHg 62%
    09:00 +11°C° 0 mm 1 mps 774 mmHg 59%
    10:00 +12°C° 0 mm 1 mps 774 mmHg 55%
    11:00 +13°C° 0 mm 0 mps 774 mmHg 51%
    12:00 +15°C° 0 mm 0 mps 774 mmHg 46%
    13:00 +15°C° 0 mm 0 mps 774 mmHg 45%
    14:00 +15°C° 0 mm 0 mps 773 mmHg 44%
    15:00 +18°C° 0 mm 1 mps 773 mmHg 44%
    16:00 +15°C° 0 mm 1 mps 773 mmHg 48%
    17:00 +13°C° 0 mm 1 mps 773 mmHg 52%
    18:00 +12°C° 0 mm 1 mps 773 mmHg 57%
    19:00 +11°C° 0 mm 1 mps 773 mmHg 57%
    20:00 +11°C° 0 mm 1 mps 773 mmHg 58%
    21:00 +10°C° 0 mm 1 mps 773 mmHg 58%
    22:00 +10°C° 0 mm 1 mps 772 mmHg 59%
    23:00 +9°C° 0 mm 1 mps 772 mmHg 59%

    27 February, Wednesday

    Time Temperature Precipitation Wind Pressure Humidity
    00:00 +9°C° 0 mm 1 mps 772 mmHg 60%
    01:00 +9°C° 0 mm 1 mps 772 mmHg 61%
    02:00 +9°C° 0 mm 1 mps 771 mmHg 63%
    03:00 +8°C° 0 mm 1 mps 771 mmHg 64%
    04:00 +8°C° 0 mm 1 mps 770 mmHg 66%
    05:00 +8°C° 0 mm 1 mps 770 mmHg 67%
    06:00 +7°C° 0 mm 1 mps 770 mmHg 69%
    07:00 +9°C° 0 mm 1 mps 770 mmHg 65%
    08:00 +9°C° 0 mm 2 mps 770 mmHg 61%
    09:00 +10°C° 0 mm 2 mps 769 mmHg 58%
    10:00 +13°C° 0 mm 2 mps 769 mmHg 53%
    11:00 +14°C° 0 mm 2 mps 769 mmHg 48%
    12:00 +16°C° 0 mm 2 mps 768 mmHg 43%
    13:00 +16°C° 0 mm 2 mps 768 mmHg 43%
    14:00 +16°C° 0 mm 2 mps 767 mmHg 43%
    15:00 +17°C° 0 mm 3 mps 766 mmHg 43%
    16:00 +15°C° 0 mm 2 mps 766 mmHg 49%
    17:00 +13°C° 0 mm 2 mps 766 mmHg 54%
    18:00 +12°C° 0 mm 2 mps 766 mmHg 60%
    19:00 +10°C° 0 mm 3 mps 766 mmHg 66%
    20:00 +10°C° 0 mm 3 mps 766 mmHg 72%
    21:00 +9°C° 0 mm 3 mps 765 mmHg 78%
    22:00 +9°C° 0 mm 3 mps 765 mmHg 81%
    23:00 +8°C° 0 mm 4 mps 765 mmHg 84%

    28 February, Thursday

    Time Temperature Precipitation Wind Pressure Humidity
    00:00 +7°C° 0 mm 4 mps 765 mmHg 88%
    01:00 +7°C° 0 mm 4 mps 764 mmHg 89%
    02:00 +7°C° 0 mm 5 mps 764 mmHg 91%
    03:00 +7°C° 0 mm 5 mps 764 mmHg 93%
    04:00 +7°C° 0 mm 5 mps 764 mmHg 93%
    05:00 +7°C° 0 mm 5 mps 764 mmHg 92%
    06:00 +7°C° 0 mm 5 mps 764 mmHg 92%
    07:00 +7°C° 0 mm 6 mps 764 mmHg 89%
    08:00 +8°C° 0 mm 6 mps 764 mmHg 87%
    09:00 +8°C° 0 mm 6 mps 765 mmHg 84%
    10:00 +9°C° 0 mm 6 mps 765 mmHg 83%
    11:00 +9°C° 0 mm 6 mps 765 mmHg 83%
    12:00 +10°C° 0 mm 6 mps 766 mmHg 82%
    13:00 +10°C° 0 mm 6 mps 766 mmHg 80%
    14:00 +10°C° 0 mm 5 mps 766 mmHg 79%
    15:00 +10°C° 0 mm 5 mps 766 mmHg 77%
    16:00 +9°C° 0 mm 5 mps 766 mmHg 79%
    17:00 +10°C° 0 mm 4 mps 767 mmHg 80%
    18:00 +8°C° 0 mm 4 mps 767 mmHg 81%
    19:00 +7°C° 0 mm 4 mps 767 mmHg 83%
    20:00 +6°C° 0 mm 4 mps 767 mmHg 85%
    21:00 +6°C° 0 mm 4 mps 767 mmHg 87%
    22:00 +5°C° 0 mm 4 mps 768 mmHg 88%
    23:00 +5°C° 0 mm 4 mps 768 mmHg 90%
    Show more